Weather in Starokuvinskiy

Russia / Karachay-Cherkess Republic     44°20′49″N   41°46′42″E
temp.,
°C
wind,
m/s
gust,
m/s
humid.,
%
clouds,
%
prec.,
mm/h
press.,
hPa
HPBL,
m
18 may, tue
tue1800:00+13w3696100 1.1 1010335
03:00+13s1194100 2.0 101127
06:00+13sw1192100 0.1 101143
09:00+16nne2175100 0.4 1011645
12:00+19ne326895 0.1 10111252
15:00+16ne348297 0.8 1012410
18:00+17ene35817 0.3 1011674
21:00+12ese22920 0.3 101212
19 may, wed
wed1900:00+11sse22930 0.0 101012
03:00+11s2287100 0.0 100927
06:00+12wsw3692100 0.4 1011346
09:00+14wsw469197 1.7 1012528
12:00+10wnw5119597 2.0 1015464
15:00+16nw457328 2.6 1014912
18:00+15nne46770 0.4 1015531
21:00+10ese22914 0.4 101813
20 may, thu
thu2000:00+9s33935 0.0 101730
03:00+7s347529 0.0 101852
06:00+8s336755 0.0 101845
09:00+15ene23595 0.0 1016469
12:00+20e345786 0.0 1014910
15:00+21ene445611 0.0 10131097
18:00+19e58751 0.0 1013416
21:00+13se228870 0.0 101435
21 may, fri
fri2100:00+13sse32915 0.0 101223
03:00+11s33610 0.0 101221
06:00+13sse33640 0.0 101232
09:00+22e22520 0.0 1011268
12:00+24e56555 0.0 1010534
15:00+26e686324 0.0 1009515
18:00+23e48778 0.0 1009215
21:00+18ese22885 0.0 101017
22 may, sat
sat2200:00+16sse227575 0.0 100921
03:00+16sse3350100 0.0 100923
06:00+16s3360100 0.0 100931
09:00+24e224911 0.0 1007226
12:00+26ene225288 0.0 1008645
15:00+27ne3359100 0.0 10071001
18:00+24n1278100 0.0 100878
21:00+20ssw2283100 0.0 100815